Pocatello, ID

10:59 PM MST on November 18, 2017 (GMT -0700)
Pocatello Regional

Weather History for KPIH - August, 2013

Change the Weather History Date:

Friday, August 9, 2013

  Actual Average Record
Temperature  
Mean Temperature 71 °F 70 °F  
Max Temperature 93 °F 89 °F 99 °F (2003)
Min Temperature 48 °F 52 °F 35 °F (1995)
Degree Days  
Heating Degree Days 0 0  
Month to date heating degree days 0 0  
Since 1 June heating degree days 90 151  
Since 1 July heating degree days 0 20  
Cooling Degree Days 6 6  
Month to date cooling degree days 60 54  
Year to date cooling degree days 454 277  
Since 1 June cooling degree days 445 272  
Growing Degree Days 20 (Base 50)    
Moisture  
Dew Point 36 °F    
Average Humidity 42    
Maximum Humidity 74    
Minimum Humidity 9    
Precipitation  
Precipitation 0.00 in 0.02 in 0.29 in (1968)
Month to date precipitation 0.01 0.17  
Year to date precipitation 3.83 7.63  
Snow  
Snow 0.00 in - - ()
Month to date snowfall 0.0  
Since 1 June snowfall 0.0  
Since 1 July snowfall 0.0  
Snow Depth 0.00 in    
Sea Level Pressure  
Sea Level Pressure 29.88 in    
Wind  
Wind Speed 6 mph (NE)    
Max Wind Speed 16 mph    
Max Gust Speed 21 mph    
Visibility 10 miles    
Events      
T = Trace of Precipitation, MM = Missing Value Source: NWS Daily Summary

Daily Weather History Graph

Daily Weather History Graph

Search for Another Location

Airport or City:

Trip Planner

Search our weather history database for the weather conditions in past years. The results will help you decide how hot, cold, wet, or windy it might be!

Date:

Astronomy

Aug. 09, 2013 Rise Set
Actual Time 6:30 AM MDT 8:40 PM MDT
Civil Twilight 5:59 AM MDT 9:11 PM MDT
Nautical Twilight 5:20 AM MDT 9:50 PM MDT
Astronomical Twilight 4:38 AM MDT 10:32 PM MDT
Moon 9:26 AM MDT (8/9) 9:45 PM MDT (8/9)
Length of Visible Light 15h 12m
Length of Day
14h 10m
Waxing Crescent, 8% of the Moon is Illuminated
Aug 9
Waxing Crescent
Aug 14
First Quarter
Aug 20
Full
Aug 28
Last Quarter
Sep 5
New

Hourly Weather History & Observations

Time (MDT) Temp. Dew Point Humidity Pressure Visibility Wind Dir Wind Speed Gust Speed Precip Events Conditions
12:53 AM 64.0 °F 45.0 °F 50% 29.89 in 10.0 mi NE 6.9 mph - N/A   Clear
1:53 AM 62.1 °F 45.0 °F 53% 29.90 in 10.0 mi Calm Calm - N/A   Clear
2:53 AM 57.9 °F 45.0 °F 62% 29.89 in 10.0 mi NNE 4.6 mph - N/A   Clear
3:53 AM 60.1 °F 46.0 °F 60% 29.88 in 10.0 mi SE 3.5 mph - N/A   Clear
4:53 AM 53.1 °F 44.1 °F 71% 29.88 in 10.0 mi Calm Calm - N/A   Clear
5:53 AM 52.0 °F 43.0 °F 71% 29.91 in 10.0 mi Calm Calm - N/A   Clear
6:53 AM 50.0 °F 43.0 °F 77% 29.93 in 10.0 mi NNE 5.8 mph - 0.01 in   Partly Cloudy
7:53 AM 52.0 °F 43.0 °F 71% 29.96 in 10.0 mi Calm Calm - N/A   Partly Cloudy
8:53 AM 66.0 °F 46.9 °F 50% 29.93 in 10.0 mi East 4.6 mph - N/A   Clear
9:53 AM 79.0 °F 44.1 °F 29% 29.91 in 10.0 mi East 5.8 mph - N/A   Clear
10:53 AM 82.0 °F 39.0 °F 22% 29.91 in 10.0 mi Variable 4.6 mph - N/A   Clear
11:53 AM 84.9 °F 39.0 °F 20% 29.91 in 10.0 mi NNW 5.8 mph 16.1 mph N/A   Clear
12:53 PM 87.1 °F 30.0 °F 13% 29.90 in 10.0 mi NW 11.5 mph - N/A   Partly Cloudy
1:53 PM 88.0 °F 30.0 °F 12% 29.89 in 10.0 mi NW 11.5 mph - N/A   Partly Cloudy
2:53 PM 86.0 °F 32.0 °F 14% 29.88 in 10.0 mi Variable 6.9 mph - N/A   Scattered Clouds
3:53 PM 91.9 °F 28.9 °F 11% 29.84 in 10.0 mi Variable 3.5 mph - N/A   Clear
4:53 PM 91.9 °F 26.1 °F 9% 29.83 in 10.0 mi NNE 6.9 mph - N/A   Clear
5:53 PM 91.0 °F 24.1 °F 9% 29.83 in 10.0 mi Variable 6.9 mph - N/A   Clear
6:53 PM 90.0 °F 30.0 °F 12% 29.83 in 10.0 mi NNW 6.9 mph - N/A   Clear
7:53 PM 86.0 °F 30.0 °F 13% 29.83 in 10.0 mi North 4.6 mph - N/A   Clear
8:53 PM 79.0 °F 30.0 °F 17% 29.83 in 10.0 mi South 5.8 mph - N/A   Clear
9:53 PM 73.9 °F 21.9 °F 14% 29.84 in 10.0 mi South 5.8 mph - N/A   Clear
10:53 PM 75.0 °F 30.0 °F 19% 29.84 in 10.0 mi South 10.4 mph - N/A   Clear
11:53 PM 73.9 °F 32.0 °F 21% 29.83 in 10.0 mi South 10.4 mph - N/A   Clear